Rbgn^[z[y[W
メイン
   新天体発見情報
     Comet P/2022 BV9 (Lemmon)
投稿するにはまず登録を

スレッド表示 | 新しいものから 前のトピック | 次のトピック | 下へ
投稿者 スレッド
佐藤裕久
投稿日時: 2023-5-2 12:19
モデレータ
登録日: 2005-6-12
居住地: 日本
投稿: 2697
オンライン
Comet P/2022 BV9 (Lemmon)

2022年1月30日、Mt Lemmonの1.5-m 反射望遠鏡で得た画像から、小惑星状天体が発見された。
小惑星センターのPCCP webpageに公表後、2021年2月6日〜11日、Palomar 1.2-m Schmidt望
遠鏡で得た小惑星発見前の一夜観測4セットが、小惑星センターの "isolated tracklet file"
 (ITF) にあり、後に2022 BV9と確認された。
R. Weryk (西オンタリオ大学,物理および天文学科)は、4月1日、"Comets Mailing List"で、
Peter VanWylenが2010年?2014年のアーカイブでは、軌道の制約があるにもかかわらず彗星の
欠測を指摘したことを報告した。その後、WerykがPan-STARRSの画像アーカイブに目を通した
ところ、明確な彗星活動が見つかった。
佐藤英貴氏(東京都文京区、2023年4月11.14-11.15日UT, 60-秒露出8枚のスタック, 0.51-m 
f/6.8 アストログラフ, f/4.5 レデューサー付, Beryl Junction, ユタ州, 米国, 遠隔操作:
中程度に集光した細長い8"×10"のコマがあるが尾はない。6".5の円形範囲で測定した光度は
19.6等であった)らCCD観測者によって彗星状と観測された。

彗星機能は次のとおり、

OC   Date        Reporter           Coma    Tail    PA          Exposures
I41  2022-01-25  M. Kelley         10"        8"    263           1x30s
I41  2022-08-28  M. Kelley          8"       10"    272           5x30s
I41  2022-09-21  M. Kelley          5"        9"    283           1x30s
I41  2022-11-04  M. Kelley          7"        7"    277           2x30s
F51  2022-12-15  R. Weryk           3"        5"    250-300       4x45s
I41  2022-12-24  M. Kelley          7"        8"    277           3x30s
F52  2023-01-14  P. VanWylen        4"        7"    245-315       4x45s
F52  2023-01-24  P. VanWylen        4"        7"    250-305       4x45s

発見位置は次のとおり、

     2022 UT             R.A. (2000) Decl.       Mag.
     Jan. 30.12885    3 09 56.65   +31 21 57.7   20.5
          30.13448    3 09 56.80   +31 21 57.4   20.5
          30.14012    3 09 56.93   +31 21 56.6   20.2
          30.14574    3 09 57.07   +31 21 56.1   20.4

MPCの楕円軌道要素、位置推算表は次のとおり、

Orbital elements:
    P/2022 BV9 (Lemmon)                                                         
Epoch 2023 Feb. 25.0 TT = JDT 2460000.5                                         
T 2020 Oct. 23.87627 TT                                 Rudenko                 
q   3.3364938            (2000.0)            P               Q                  
n   0.10824849     Peri.   16.20254     +0.99124765     +0.10516529             
a   4.3603514      Node   337.29909     -0.13189208     +0.81503369             
e   0.2348108      Incl.   11.93391     +0.00570674     +0.56978974             
P   9.11                                                                        
From 107 observations 2021 Feb. 6-2023 Apr. 11, mean residual 0".7.             
                                                                                
Ephemeris:
Date    TT    R. A. (2000) Decl.     Delta      r    Elong.  Phase   m1
2023 03 30    06 59 49.6 +31 08 45   4.5115  4.6906    94.1    12.3  19.5
...
2023 04 14    07 06 22.2 +30 22 10   4.7675  4.7159    81.0    12.1  19.6
...
2023 04 22    07 10 58.2 +29 56 52   4.9016  4.7293    74.3    11.8  19.7
...
2023 04 28    07 14 51.4 +29 37 38   4.9997  4.7393    69.4    11.5  19.8
2023 04 29    07 15 32.2 +29 34 24   5.0157  4.7410    68.5    11.4  19.8
2023 04 30    07 16 13.6 +29 31 10   5.0317  4.7426    67.7    11.3  19.8
...
2023 05 06    07 20 32.5 +29 11 35   5.1258  4.7525    62.9    10.9  19.8
...
2023 05 14    07 26 43.6 +28 44 59   5.2457  4.7656    56.7    10.2  19.9
...
2023 05 29    07 39 24.9 +27 53 17   5.4494  4.7898    45.2     8.6  20.0

(MPEC 2023-H240、CBET 5251)

スレッド表示 | 新しいものから 前のトピック | 次のトピック | トップ

投稿するにはまず登録を
 
© 1999 Tsutomu Seki.